Location: Buena Vista
(37.7110°N, 119.7938°W)
Time: 22:57:24
(UTC+00:00)

Envisat - Pass Details

Date: 19 August 2024
Orbit: 762 x 764 km, 98.3° (Epoch: 08 September)

Event Time Altitude Azimuth Distance (km) Brightness Sun altitude
Rises 11:10:55 0° 12° (NNE) 3,232 7.0 -23.2°
Reaches altitude 10° 11:13:14 10° 12° (NNE) 2,302 6.1 -22.8°
Maximum altitude 11:18:19 88° 286° (WNW) 768 2.9 -22.0°
Enters shadow 11:19:59 44° 196° (SSW) 1,049 3.3 -21.8°
